{"data":{"norad_id":40717,"intl_designator":"2015-032C","name":"DMC3-FM3","alt_names":[],"object_type":"PAYLOAD","status":"ACTIVE","operator":null,"country":"UK","launch_date":"2015-07-10","launch_site_code":"SRILR","launch_vehicle":null,"mission":null,"orbit_class":"UNKNOWN","rcs_meters":1.5157,"size_class":null,"mass_kg":null,"dimensions":null,"purposes":["earth_obs"],"wikipedia_slug":null,"has_3d_model":false,"image_url":null,"decayed_at":null,"tle_current":{"epoch":"2026-09-20T03:23:55.311360Z","epoch_age_seconds":45455,"freshness":"FRESH","line1":"1 40717U 15032C   26263.14161240  .00000515  00000+0  65131-4 0  9998","line2":"2 40717  97.6410 127.9783 0006744  99.8512 260.3466 14.85819680604018","mean_motion":14.8581968,"eccentricity":0.0006744,"inclination_deg":97.641,"raan_deg":127.9783,"arg_perigee_deg":99.8512,"mean_anomaly_deg":260.3466,"bstar":6.5131e-5,"rev_number":60401,"period_min":96.91620183682,"perigee_km":606.30073534408,"apogee_km":615.72770250817,"semimajor_km":6989.1512189261,"source":"CELESTRAK","updated_at":"2026-09-20T09:00:34.587637Z"}}}